Location: Gebenbach
(49.5378°N, 11.8735°E)
Time: 12:20:27
(UTC+00:00)

BREEZE-M TANK - Pass Details

Date: 29 October 2020
Orbit: 546 x 24740 km, 45.2° (Epoch: 21 November)

Event Time Altitude Azimuth Distance (km) Brightness Sun altitude
Rises 17:07:21 0° 270° (W) 7,491 10.1 -12.2°
Reaches altitude 10° 17:14:10 10° 267° (W) 4,502 8.4 -13.3°
Maximum altitude 17:22:30 54° 192° (SSW) 966 3.6 -14.7°
Enters shadow 17:24:54 20° 120° (ESE) 1,443 4.0 -15.1°
